Weather in Voznesenskoye

Russia / Khabarovsk Krai     50°07′54″N   136°56′04″E
temp.,
°C
wind,
m/s
gust,
m/s
humid.,
%
clouds,
%
prec.,
mm/h
press.,
hPa
HPBL,
m
18 august, thu
thu1801:00+18ssw412940 0.0 1004289
04:00+17ssw412951 0.0 1004280
07:00+17s399314 0.0 1004284
10:00+21ssw69780 0.0 1002491
13:00+24ssw710680 0.0 1001822
16:00+25ssw711662 0.0 9991267
19:00+23ssw51175100 0.0 998510
22:00+19s3890100 0.4 998157
19 august, fri
fri1901:00+18ssw4129589 0.7 997305
04:00+17ssw3798100 0.8 997180
07:00+17sse2498100 0.0 999134
10:00+19ssw2490100 0.0 999407
13:00+19ssw3488100 0.1 999246
16:00+16nne1195100 5.9 99850
19:00+15ne3798100 8.9 996328
22:00+14n6898100 19.1 994417
20 august, sat
sat2001:00+14n6998100 16.0 991347
04:00+14n4699100 28.8 987250
07:00+15nw3499100 16.3 987214
10:00+13n6993100 21.6 988541
13:00+13ese2395100 1.9 989144
16:00+13e2494100 6.3 988215
19:00+12sw2596100 2.4 988276
22:00+12sse1197100 3.9 98889
21 august, sun
sun2101:00+12sse2295100 0.5 98788
04:00+11s2496100 0.8 987133
07:00+11ssw3696100 0.2 988272
10:00+13sw3590100 0.4 989374
13:00+15wsw248693 0.9 990282
16:00+16ssw237898 1.8 991401
19:00+15ese238586 0.8 99258
22:00+13s1193100 1.2 99437
22 august, mon
mon2201:00+13se1194100 0.4 99432
04:00+13sw3696100 1.2 995376
07:00+13sw2498100 1.2 996334
10:00+12nw2496100 4.7 996311
13:00+12nw1194100 1.1 998126
16:00+13nne0193100 1.6 99992
19:00+13ne1193100 0.1 100057
22:00+12ne1192100 0.1 100138